THORAD AGENA D DEB, 4855

Orbit data source: Space-Track

THORAD AGENA D DEB, 4855 is space debris in SSO originally from a launch on Wed, 08 Apr 1970 UTC launched from the Air Force Western Test Range (AFWTR). Debris objects in space refer to the collection of defunct objects orbiting the Earth. Examples of debris include non-operational satellites, rocket bodies, and fragments generated from explosions, collisions, or faulty payload assembly.

Loading next visibility...
Identifier
4855, 1970-025EK
Orbit
SSO
Country
Flag of USUS
Related business
Manufacturer
Unknown
Mission
Spacecraft
Bus & Motor
Unknown
Mass
Unknown
Launch date (UTC)
1970-04-08 (56 years ago)
Launch vehicle
Unknown
Launch site
Air Force Western Test Range (AFWTR)
Object type
Payload
Rocket body
Debris
Shape & HBR
Unknown shape, 0.1 m
Radar Cross Section
Small (<0.1 m²)

Expand to show TLE details & history
Last TLE update: 1 day ago

TLE from 1 day ago
0 THORAD AGENA D DEB
1 04855U 70025EK  25300.41428359  .00000949  00000-0  10533-2 0  9998
2 04855  99.9294 239.2172 0015611 301.1091 180.7233 13.74452867764997
Epoch: 2025-10-27T09:56Z
TLE epoch observation values (Epoch: 2025-10-27T09:56:34.102Z)
Latitude
56.91108°
Longitude
-110.44015°
Altitude
1,004.564 km
Speed
7.349 km/s
True Right ascension
04h 58m 52s
True Declination
56° 45' 32"
Sunlit
Object was in full shadow at epoch
Visualization orbit readout
Latitude
Unknown
Longitude
Unknown
Altitude
Unknown
Speed
Unknown
Apparent Right ascension
Unknown
Apparent Declination
Unknown
Sunlit
N/A
Visualization observer readout
Local Sidereal Time
09:53:27
Azimuth
Unknown
Elevation
Unknown
Doppler factor
Unknown
Orbital elements
Apogee altitude
992.397 km
Perigee altitude
969.42 km
Semi-major axis
7,359.046 km
Eccentricity
0.00156
Inclination
99.9294°
RAAN
239.2172°
Arg. of periapsis
301.1091°
True anomaly
180.72105°
Mean anomaly
180.7233°
Eccentric anomaly
180.72217°
Mean motion
3.43804 °/min
Orbital period
104.71 mins
BSTAR
0.0010533
Loading maneuver chart data...
Computing Atmospheric mass density...

Documentation

Showing up to 5 results
|